Date,TemperatureHighF,TemperatureAvgF,TemperatureLowF,DewpointHighF,DewpointAvgF,DewpointLowF,HumidityHigh,HumidityAvg,HumidityLow,PressureMaxIn,PressureMinIn,WindSpeedMaxMPH,WindSpeedAvgMPH,GustSpeedMaxMPH,PrecipitationSumIn
2013-4-1,50.2,44.9,38.4,45.5,40.1,31.9,100,84,65,26.66,26.56,0,0,0,0.00
2013-4-2,45.3,37.7,29.6,32.2,25.2,19.1,81,62,40,26.79,26.66,0,0,0,0.00
2013-4-3,52.3,38.6,27.4,26.2,19.4,14.9,63,47,27,26.92,26.79,0,0,0,0.00
2013-4-4,36.1,31.8,28.4,32.4,24.5,13.1,100,78,43,26.91,26.63,0,0,0,0.04
2013-4-5,50.5,41.1,32.4,42.5,36.9,32.4,100,86,60,26.75,26.59,13,2,17,0.17
2013-4-6,56.2,46.8,32.1,39.5,35.1,29.3,92,65,47,26.90,26.75,0,0,0,0.00
2013-4-7,60.7,50.8,35.8,46.6,41.7,34.2,95,71,59,26.88,26.81,0,0,0,0.00
2013-4-8,66.8,56.2,41.0,54.4,48.3,39.6,98,76,62,26.86,26.80,0,0,0,0.00
2013-4-9,74.1,61.2,43.8,57.9,52.6,43.8,100,76,52,26.94,26.84,0,0,0,0.00
2013-4-10,76.2,65.9,54.5,60.1,56.2,52.5,94,72,51,26.87,26.75,0,0,0,0.00
2013-4-11,69.0,61.8,53.3,61.2,56.4,52.5,100,83,66,26.75,26.52,8,1,13,0.11
2013-4-12,61.3,55.5,46.7,61.3,51.5,39.2,100,87,60,26.59,26.42,21,3,30,1.46
2013-4-13,59.7,50.5,43.2,41.3,38.0,33.8,80,64,41,26.77,26.56,0,0,0,0.00
2013-4-14,63.6,53.8,38.9,48.3,40.9,33.9,89,63,43,26.82,26.73,0,0,0,0.00
2013-4-15,51.4,49.1,46.7,50.9,49.0,46.7,100,100,89,26.93,26.73,28,3,28,0.28
2013-4-16,68.2,58.3,50.7,64.3,56.4,50.6,100,94,79,27.00,26.92,11,2,11,0.01
2013-4-17,64.9,59.2,55.2,60.8,57.7,55.2,100,95,79,26.99,26.89,11,1,24,0.22
2013-4-18,65.6,59.7,53.5,60.2,57.7,53.5,100,94,74,26.89,26.74,0,0,0,0.04
2013-4-19,60.6,54.6,39.9,60.6,54.4,38.0,100,99,92,26.73,26.51,26,8,36,1.33
2013-4-20,50.5,42.4,34.9,38.1,33.3,27.4,90,71,55,26.95,26.60,15,2,20,0.00
2013-4-21,49.8,41.0,30.1,36.7,32.5,27.6,94,73,56,27.09,26.95,0,0,5,0.00
2013-4-22,52.3,43.1,34.5,40.4,34.7,27.9,95,74,55,27.07,26.92,0,0,0,0.00
2013-4-23,62.1,48.4,31.1,48.5,40.9,28.5,96,76,60,26.94,26.82,0,0,0,0.00
2013-4-24,63.9,54.4,43.0,57.4,51.0,43.0,100,89,73,26.83,26.73,0,0,0,0.04
2013-4-25,58.8,47.2,34.1,45.3,34.1,22.3,100,66,27,26.99,26.80,0,0,6,0.00
2013-4-26,58.9,49.0,36.5,42.3,36.1,29.2,76,62,48,27.08,26.99,0,0,0,0.00
2013-4-27,52.1,49.2,46.7,49.6,45.6,39.5,100,88,63,27.06,26.93,4,0,67,0.17
2013-4-28,48.9,46.3,44.6,48.9,46.3,44.6,100,100,100,26.93,26.74,12,2,13,0.85
2013-4-29,62.5,54.6,48.0,57.4,53.4,48.0,100,96,75,26.77,26.71,18,2,70,0.03
2013-4-30,64.3,55.8,52.3,62.0,54.9,52.3,100,97,79,26.92,26.75,25,2,25,0.02